Location: Shepherdstown, WV
(39.4326°N, 77.8042°W)
Time: 10:50:13
(UTC-04:00)

S-56A Canister/Altair - Pass Details

Date: 03 August 2021
Orbit: 632 x 2500 km, 38.9° (Epoch: 19 September)

Event Time Altitude Azimuth Distance (km) Brightness Sun altitude
Rises 22:09:05 0° 288° (WNW) 6,181 13.3 -18.3°
Reaches altitude 10° 22:13:55 10° 280° (W) 5,117 12.5 -19.0°
Maximum altitude 22:25:32 30° 227° (SW) 3,350 10.7 -20.6°
Enters shadow 22:33:03 16° 180° (S) 3,782 10.6 -21.6°
